Tracking 19286 objects as of 19-Nov-2018
HD Live streaming from Space Station
objects crossing your sky now

GSAT0204

Track GSAT0204 now!
GSAT0204 is classified as:


NORAD ID: 40545
Int'l Code: 2015-017B
Perigee: 23,220.3 km
Apogee: 23,238.0 km
Inclination: 56.0 °
Period: 844.7 minutes
Semi major axis: 29600 km
RCS: Unknown
Launch date: March 27, 2015
Source: European Space Agency (ESA)
Launch site: FRENCH GUIANA (FRGUI)

GSAT0203 is a member of European's Galileo navigation satellite constellation.
aabbcc
Your satellite tracking list
Your tracking list is empty




NASA's NSSDC Master Catalog

Two Line Element Set (TLE):
1 40545U 15017B   18323.07544160 -.00000055  00000-0  00000+0 0  9996
2 40545  56.0223  57.4412 0002996 195.1328 164.8628  1.70475631 22694
Source of the keplerian elements: AFSPC